Location: Krasnoyarskiy Pitomnik
(51.1333°N, 71.6167°E)
Time: 06:08:37
(UTC+00:00)

Transit 2A - Pass Details

Date: 16 April 2024
Orbit: 594 x 958 km, 66.7° (Epoch: 21 May)

Event Time Altitude Azimuth Distance (km) Brightness Sun altitude
Rises 12:29:53 0° 312° (NW) 3,259 10.0 14.9°
Reaches altitude 10° 12:32:48 10° 296° (WNW) 2,395 9.9 14.4°
Maximum altitude 12:36:42 20° 251° (WSW) 1,869 9.8 13.8°
Drops below altitude 10° 12:40:49 10° 206° (SSW) 2,548 9.1 13.2°
Sets 12:44:03 0° 191° (S) 3,536 9.6 12.7°
